weather.gov     
National Weather Service

Regional Weather Roundup
NWS Homepage
This page is being discontinued on March 12, 2014.
The same data is available at this site. Please update your bookmarks.
Thank you, and we apologize for the inconvenience.
Please send an email to SR-SRH.Webmaster@noaa.gov with any concerns.


Current Version
Previous Version:    01  02  03  04  05  06  07  08  09  10  11  12  13  14  15  16  17  18  19  20  21  22  23  24  25  26  27  28  29  30  
   31  32  33  34  35  36  37  38  39  40  41  42  43  44  45  46  47  48  49  50  51  52  53  54  55  56  57  58  59  60  
[Printable]
141
ASCA44 KEWX 240120
RWRMX

LATIN AMERICA AND CARIBBEAN REGIONAL WEATHER ROUNDUP
NATIONAL WEATHER SERVICE AUSTIN/SAN ANTONIO TX
700 PM CST SUN NOV 23 2014

NOTE: "FAIR" INDICATED FEW OR NO CLOUDS BELOW 12,000 FEET WITH NO
SIGNIFICANT WEATHER AND/OR OBSTRUCTIONS TO VISIBILITY.

BAJA CALIFORNIA

CITY           SKY/WX    TMP DP  RH WIND       PRES   REMARKS
LORETO         CLEAR     73  66  78 NE12      29.92R
LA PAZ         PTCLDY    73  52  46 N9        29.92
MEXICALI       PTCLDY    68  14  12 NW6       30.11
S.J. DEL CABO  MOCLDY    73  61  64 S5        29.90R
TIJUANA        MOCLDY    66  54  63 W8        30.11R

NORTHWESTERN MEXICO

CITY           SKY/WX    TMP DP  RH WIND       PRES   REMARKS
CULIACAN       PTCLDY    77  64  65 NW12      29.86
DURANGO        PTCLDY    66  48  52 S8        30.04R
GUAYMAS        CLEAR     75  57  53 SW12      29.86
HERMOSILLO     CLEAR     73  37  27 S5        29.94
CD. JUAREZ     PTCLDY    59  23  25 W18G35    29.87
LOS MOCHIS     CLEAR     73  54  49 NW10      29.89R
OBREGON        CLEAR     73  48  40 W12       29.87

NORTHEASTERN MEXICO

CITY           SKY/WX    TMP DP  RH WIND       PRES   REMARKS
CHIHUAHUA      CLEAR     61  30  31 E5        29.91
MATAMOROS      CLEAR     70  64  83 CALM      29.69
MONTERREY      PTCLDY    70  52  52 E5        29.68R
NUEVO LAREDO   CLEAR     77  50  38 CALM      29.65
PIEDRAS NEGRAS CLEAR     73  50  43 CALM      29.67R
REYNOSA        PTCLDY    68  54  60 SE7       29.66
SALTILLO       PTCLDY    68  50  52 S7        29.94R
TORREON        PTCLDY    70  32  24 NE6       29.86R
CD. VICTORIA   PTCLDY    72  59  64 SE7       29.68

WESTERN MEXICO

CITY           SKY/WX    TMP DP  RH WIND       PRES   REMARKS
AGUASCALIENTES PTCLDY    61  34  36 SW6       30.14
COLIMA         MOCLDY    73  70  88 W9        29.93S
DEL BAJIO      PTCLDY    66  41  39 W7        30.18R
GUADALAJARA    CLEAR     66  46  48 W6        30.07
MANZANILLO     PTCLDY    81  75  83 CALM      29.76R
MAZATLAN       PTCLDY    70  61  73 W8        29.84R
P. VALLARTA    MOCLDY    79  70  73 S7        29.83S
URUAPAN        MOCLDY    70  59  68 CALM      30.10R

CENTRAL MEXICO

CITY           SKY/WX    TMP DP  RH WIND       PRES   REMARKS
CUERNAVACA     PTCLDY    75  55  50 CALM      30.00R
MEXICO CITY    CLEAR     66  48  52 SE13      30.18R
MORELIA        CLEAR     64  55  72 S9        30.12
POZA RICA      CLEAR     77  70  78 E9        29.75R
PUEBLA         PTCLDY    57  50  77 S7        30.21R
QUERETARO      CLEAR     66  36  32 NW7       30.16R
S. LUIS POTOSI PTCLDY    66  23  19 SW5       30.07R
TAMPICO          N/A     72  70  94 SE8       29.70R FOG
TOLUCA         PTCLDY    57  45  62 CALM      30.29R

SOUTHERN MEXICO

CITY           SKY/WX    TMP DP  RH WIND       PRES   REMARKS
ACAPULCO       PTCLDY    82  75  78 W5        29.80R
B. DE HUATULCO PTCLDY    79  70  73 CALM      29.83
OAXACA         CLEAR     72  57  60 SE10      30.06R
P. ESCONDIDO   PTCLDY    82  77  83 W13       29.93R HX  91
VERACRUZ       PTCLDY    75  70  83 N5        29.71R
ZIHUATANEJO    PTCLDY    82  75  78 CALM      29.81R

YUCATAN PENINSULA

CITY           SKY/WX    TMP DP  RH WIND       PRES   REMARKS
CAMPECHE       PTCLDY    84  75  74 E12       29.72R HX  92
CANCUN         PTCLDY    79  75  89 S6        29.85R
CHETUMAL       CLEAR     81  75  83 E12       29.80R
CD. DEL CARMEN CLEAR     84  75  74 SE8       29.73  HX  92
COZUMEL        PTCLDY    73  73 100 CALM      29.84R
MERIDA         PTCLDY    79  73  83 SE6       29.78R
MINATITLAN     CLEAR     79  68  69 N7        29.71
TAPACHULA      PTCLDY    82  77  83 CALM      29.81R HX  91
TUX. GUTIERREZ CLEAR     77  68  73 N5        29.82R
VILLAHERMOSA   CLEAR     77  73  88 CALM      29.75R

CENTRAL AMERICA

CITY           SKY/WX    TMP DP  RH WIND       PRES   REMARKS
MANAGUA        PTCLDY    79  75  89 E5        29.80R

CARIBBEAN

CITY           SKY/WX    TMP DP  RH WIND       PRES   REMARKS
ARUBA          PTCLDY    82  75  78 E16       29.83S
CURACAO        PTCLDY    82  75  78 E15       29.86S
KINGSTON       MOCLDY    79  75  89 E16       29.89R
NASSAU         PTCLDY    79  75  89 SE7       30.00R
SAN JUAN       CLOUDY    81  72  74 E15       30.02R
SANTO DOMINGO  PTCLDY    79  73  83 E7        29.97R
ST. KITTS      MOCLDY    81  73  78 NE16      30.00S
ST. MAARTEN    PTCLDY    81  73  78 E16       30.00S

$$





U.S. Dept. of Commerce
NOAA National Weather Service
1325 East West Highway
Silver Spring, MD 20910
E-mail: w-nws.webmaster@noaa.gov
Page last modified: May 16, 2007
NATIONAL WEATHER SERVICE: for Safety, for Work, for Fun - FOR LIFE